OneWeb SL0642

operational
NORAD ID: 55806 Int'l Des: 2023-029 Owner: ONEWEBN Country: UK Constellation: oneweb
LEOCIRCULARPOLARONEWEB_TYPE

Über OneWeb SL0642

Beschreibung wird geladen...

Live-Position

3D-Globus wird geladen...

Nächste Überflüge

Höhenverlauf

Altitude vs Time

uPlot chart will show altitude changes over time

Zweizeiliger Elementsatz

1 55806U 23029L 26034.20578515 .00000084 00000-0 17650-3 0 9992
2 55806 87.9244 331.6498 0001171 104.3153 255.8110 13.19727443141235
Epoch: 3. Feb. 2026 • Age: 9 hours

Aktueller Status

Höhe 1189.0 km
Geschwindigkeit 7.26 km/s
Subsatellitenpunkt 27.87°N, 13.76°W
Startdatum 9. März 2023
Alter 2.9 years
Typ internet

Technische Details

Klassifizierung Payload
Masse 148.00 kg
Trockenmasse 140.00 kg
Gesamtmasse 148.00 kg
Länge 1.30 m
Durchmesser 1.00 m
Spannweite 5.00 m
Form Trapezoid+2 pan
Hersteller ONEWUS
Bus-Typ ARROW
Phasenstatus In Orbit
Besitzer/Staat ONEWEBN/UK

Große Konstellationen

Loading constellations...